Home   Weather   La Ceiba   Past weeks

Flag for Honduras Past Weather in La Ceiba, Honduras — Yesterday and Last 2 Weeks

Now
73 °F

Scattered showers. More clouds than sun.


Feels Like: 70 °F
Forecast: 69 / 81 °F
Wind: 2 mph from West

Location: La Ceiba Airport

Current Time: Dec 10, 2016 at 8:51:44 am

Latest Report: Dec 10, 2016 at 8:00 am


Visibility: N/A

Pressure: 30.09 "Hg

Humidity: 94%

Dew Point: 72 °F

Location of La CeibaLocation

Past Weather in La Ceiba — Graph

°F

La Ceiba Temperature Yesterday

Maximum temperature yesterday: 86 °F (at 1:00 pm)
Minimum temperature yesterday: 72 °F (at 6:00 am)
Average temperature yesterday: 79 °F

High & Low Weather Summary for the Past Weeks

 TemperatureHumidityPressure
High90 °F (Dec 8, 11:00 am)100% (Nov 29, 12:00 am)30.07 "Hg (Nov 29, 12:00 am)
Low70 °F (Nov 29, 12:00 am)59% (Dec 8, 12:00 pm)29.71 "Hg (Nov 29, 4:00 pm)
Average79 °F83%29.90 "Hg
* Reported Nov 25 7:00 am — Dec 10 7:00 am, La Ceiba, Weather by CustomWeather, © 2016

Note: Actual official high and low records may vary slightly from our data, if they occured in-between our weather recording intervals... More about our weather records

Advertising

La Ceiba Weather History for the Previous 24 Hours

Scroll right to see more
 ConditionsComfort  
Time TempWeatherWind HumidityBarometerVisibility
7:00 am
Sat, Dec 10
73 °FRain. More clouds than sun.6 mph89%30.07 "Hg2 mi
6:00 am72 °FPartly cloudy.No wind94%30.04 "HgN/A
12:00 am73 °FPartly cloudy.2 mph94%30.07 "HgN/A
11:00 pm
Fri, Dec 9
73 °FStrong thunderstorms. Mostly cloudy.7 mph94%30.07 "Hg1 mi
10:00 pm73 °FThunderstorms. Partly cloudy.6 mph94%30.07 "Hg3 mi
9:00 pm75 °FStrong thunderstorms. Passing clouds.5 mph94%30.07 "Hg1 mi
8:00 pm75 °FHeavy rain. Partly cloudy.8 mph94%30.07 "Hg1 mi
7:00 pm77 °FRain. Partly cloudy.6 mph94%30.04 "Hg2 mi
6:00 pm77 °FPartly cloudy.2 mph94%30.01 "HgN/A
5:00 pm81 °FBroken clouds.5 mph84%29.98 "HgN/A
4:00 pm84 °FScattered clouds.6 mph70%29.98 "HgN/A
3:00 pm82 °FPartly sunny.6 mph74%29.95 "HgN/A
2:00 pm86 °FPartly sunny.5 mph66%29.98 "HgN/A
1:00 pm86 °FPartly sunny.5 mph66%29.98 "HgN/A
12:00 pm82 °FPartly sunny.2 mph74%30.01 "HgN/A
11:00 am81 °FPartly sunny.7 mph74%30.04 "HgN/A
10:00 am82 °FPartly sunny.7 mph70%30.07 "HgN/A
9:00 am82 °FPassing clouds.6 mph70%30.07 "HgN/A
8:00 am77 °FPassing clouds.No wind79%30.07 "HgN/A
Weather by CustomWeather, © 2016

See weather overviewHow to use our weather pages